THORAD AGENA D DEB, 4657

Orbit data source: Space-Track

THORAD AGENA D DEB, 4657 is space debris in SSO originally from a launch on Wed, 08 Apr 1970 UTC launched from the Air Force Western Test Range (AFWTR). Debris objects in space refer to the collection of defunct objects orbiting the Earth. Examples of debris include non-operational satellites, rocket bodies, and fragments generated from explosions, collisions, or faulty payload assembly.

Loading next visibility...
Identifier
4657, 1970-025AR
Orbit
SSO
Country
Flag of USUS
Related business
Manufacturer
Unknown
Mission
Spacecraft
Bus & Motor
Unknown
Mass
Unknown
Launch date (UTC)
1970-04-08 (56 years ago)
Launch vehicle
Unknown
Launch site
Air Force Western Test Range (AFWTR)
Object type
Payload
Rocket body
Debris
Shape & HBR
Unknown shape, 1.1 m
Radar Cross Section
Medium (>0.1 m² and <1 m²)

Expand to show TLE details & history
Last TLE update: 21 hours ago

TLE from 21 hours ago
0 THORAD AGENA D DEB
1 04657U 70025AR  26072.24140692  .00000706  00000-0  83222-3 0  9994
2 04657 100.1176 305.5060 0016576 307.5608 164.1207 13.71882283781564
Epoch: 2026-03-13T05:47Z
TLE epoch observation values (Epoch: 2026-03-13T05:47:37.557Z)
Latitude
66.21647°
Longitude
-108.52642°
Altitude
1,015.93 km
Speed
7.344 km/s
True Right ascension
09h 57m 02s
True Declination
66° 05' 37"
Sunlit
Object was in daylight at epoch
Visualization orbit readout
Latitude
Unknown
Longitude
Unknown
Altitude
Unknown
Speed
Unknown
Apparent Right ascension
Unknown
Apparent Declination
Unknown
Sunlit
N/A
Visualization observer readout
Local Sidereal Time
07:24:04
Azimuth
Unknown
Elevation
Unknown
Doppler factor
Unknown
Orbital elements
Apogee altitude
1,002.329 km
Perigee altitude
977.902 km
Semi-major axis
7,368.252 km
Eccentricity
0.00166
Inclination
100.1176°
RAAN
305.506°
Arg. of periapsis
307.5608°
True anomaly
164.17257°
Mean anomaly
164.1207°
Eccentric anomaly
164.14664°
Mean motion
3.4316 °/min
Orbital period
104.91 mins
BSTAR
0.00083222
Loading maneuver chart data...
Computing Atmospheric mass density...

Documentation

Showing up to 5 results
|